Flag for U.S.A. Weather past 2 weeks in Vallejo, California, U.S.A.

Now
65 °F

Sunny.


Feels Like: 65 °F
Forecast: 51 / 69 °F
Wind: 16 mph from Southwest

Location: Napa County Airport

Current Time: May 28, 2015 at 7:45:45 PM

Latest Report: May 28, 2015 at 6:54 PM


Visibility: 10 mi

Pressure: 29.91 "Hg

Humidity: 61%

Dew point: 51 °F

Location of VallejoLocation

Historic Weather in Vallejo — Graph

°F

Vallejo temperature yesterday

Maximum temperature yesterday: 68 °F (at 4:54 PM)
Minimum temperature yesterday: 51 °F (at 6:54 AM)
Average temperature yesterday: 57 °F

Past Weeks' High & Low Weather Summary

 TemperatureHumidityPressure
High71 °F (May 28, 4:54 PM)97% (May 15, 1:54 AM)30.09 "Hg (May 15, 1:54 AM)
Low46 °F (May 14, 5:54 AM)49% (May 15, 2:54 PM)29.75 "Hg (May 14, 4:54 PM)
Average57 °F78%29.95 "Hg
* Reported May 13 5:54 PM — May 28 5:54 PM, Vallejo, Weather by CustomWeather, © 2015

Note: Actual official high and low records may vary slightly from our data, if they occured in-between our weather recording intervals... More about our weather records

Advertising

Vallejo weather history for previous 24 hours

 ConditionsComfort  
Time TempWeatherWind HumidityBarometerVisibility
5:54 PM
Thu, May 28
68 °FSunny.14 mph61%29.91 "Hg10 mi
4:54 PM71 °FSunny.13 mph55%29.93 "Hg10 mi
3:54 PM69 °FSunny.8 mph59%29.94 "Hg10 mi
2:54 PM67 °FSunny.8 mph61%29.96 "Hg10 mi
1:54 PM65 °FSunny.9 mph63%29.98 "Hg10 mi
12:54 PM62 °FSunny.10 mph70%29.99 "Hg10 mi
11:54 AM61 °FSunny.7 mph72%30.01 "Hg10 mi
10:54 AM58 °FOvercast.8 mph75%30.01 "Hg10 mi
9:54 AM55 °FLow clouds.5 mph83%30.01 "Hg10 mi
8:54 AM53 °FLow clouds.6 mph89%30.02 "Hg10 mi
7:54 AM51 °FLow clouds.6 mph92%30.01 "Hg10 mi
6:54 AM51 °FLow clouds.6 mph92%29.99 "Hg10 mi
5:54 AM51 °FLow clouds.5 mph92%29.98 "Hg10 mi
4:54 AM51 °FLow clouds.9 mph92%29.97 "Hg10 mi
3:54 AM52 °FLow clouds.7 mph89%29.97 "Hg10 mi
3:04 AM52 °FOvercast.6 mph89%30.00 "Hg10 mi
2:54 AM52 °FLow clouds.5 mph89%29.97 "Hg10 mi
1:54 AM52 °FLow clouds.8 mph93%29.97 "Hg10 mi
12:54 AM52 °FOvercast.7 mph93%29.97 "Hg10 mi
11:54 PM
Wed, May 27
52 °FPassing clouds.12 mph93%29.98 "Hg10 mi
10:54 PM52 °FClear.10 mph93%29.97 "Hg10 mi
9:54 PM53 °FClear.12 mph89%29.97 "Hg10 mi
8:54 PM53 °FSunny.13 mph89%29.96 "Hg10 mi
7:54 PM56 °FSunny.17 mph81%29.95 "Hg10 mi
Weather by CustomWeather, © 2015

See weather overviewHow to use our weather pages